Torna al catalogo

KUIPER-00098

AttivoComunicazioniLEO
NORAD 65137·PAYLOAD·🇺🇸 United States

Lanciato Aug 11, 2025 da Cape Canaveral Space Force Station

Loading…

Prossimi Passaggi (prossime 24 ore)

TLE

AggiornatoSource: CelesTrak SupGP

Epoca: Sep 14, 2026, 17:03 UTC

1 65137C 25171F   26257.71105324  .00004581  00000+0  59970-3 0  2570
2 65137  51.9008  47.2418 0000779 102.0900  20.7760 14.79924180    16

Traccia KUIPER-00098 in tempo reale con AllMySat

Download on the App Store